False Pass, AK

10:42 AM HST on January 19, 2018 (GMT -1000)
False Pass

Weather History for PAKF - September, 2013

Change the Weather History Date:

Tuesday, September 3, 2013

  Actual Average (PACD) Record (PACD)
Temperature  
Mean Temperature 50 °F -  
Max Temperature 48 °F 54 °F 62 °F (1970)
Min Temperature 46 °F 45 °F 37 °F (1982)
Degree Days  
Heating Degree Days 16    
Moisture  
Dew Point 44 °F    
Average Humidity 83    
Maximum Humidity 97    
Minimum Humidity 59    
Precipitation  
Precipitation 0.05 in - - ()
Sea Level Pressure  
Sea Level Pressure 29.52 in    
Wind  
Wind Speed 7 mph (SW)    
Max Wind Speed 30 mph    
Max Gust Speed 41 mph    
Visibility 9 miles    
Events Rain    
Averages and records for this station are not official NWS values.
T = Trace of Precipitation, MM = Missing Value Source: NWS Daily Summary

Daily Weather History Graph

Daily Weather History Graph

Search for Another Location

Airport or City:

Trip Planner

Search our weather history database for the weather conditions in past years. The results will help you decide how hot, cold, wet, or windy it might be!

Date:

Astronomy

Sep. 03, 2013 Rise Set
Actual Time 7:04 AM HDT 8:39 PM HDT
Civil Twilight 6:27 AM HDT 9:17 PM HDT
Nautical Twilight 5:40 AM HDT 10:03 PM HDT
Astronomical Twilight 4:47 AM HDT 10:55 PM HDT
Moon 5:23 AM HDT (9/3) 7:34 PM HDT (9/3)
Length of Visible Light 14h 49m
Length of Day
13h 34m
Waning Crescent, 3% of the Moon is Illuminated
Sep 3
Waning Crescent
Sep 5
New
Sep 12
First Quarter
Sep 19
Full
Sep 26
Last Quarter

Hourly Weather History & Observations

Time (HDT) Temp. Windchill Dew Point Humidity Pressure Visibility Wind Dir Wind Speed Gust Speed Precip Events Conditions
12:01 AM 51.1 °F - 45.0 °F 80% 29.39 in 10.0 mi Calm Calm - N/A   Overcast
1:01 AM 48.0 °F - 46.0 °F 93% 29.41 in 10.0 mi WNW 3.5 mph - 0.00 in Rain Light Rain
2:01 AM 48.9 °F - 46.0 °F 90% 29.43 in 10.0 mi East 3.5 mph - 0.00 in Rain Light Rain
3:01 AM 46.9 °F - 45.0 °F 93% 29.44 in 10.0 mi South 3.5 mph - 0.00 in   Mostly Cloudy
4:01 AM 46.0 °F 43.1 °F 45.0 °F 96% 29.45 in 10.0 mi SW 5.8 mph - N/A   Scattered Clouds
5:01 AM 46.0 °F 42.5 °F 45.0 °F 96% 29.47 in 10.0 mi SSW 6.9 mph - N/A   Mostly Cloudy
6:01 AM 46.0 °F 44.8 °F 45.0 °F 96% 29.48 in 10.0 mi South 3.5 mph - N/A   Overcast
7:01 AM 46.9 °F - 45.0 °F 93% 29.48 in 10.0 mi Calm Calm - 0.01 in   Overcast
8:01 AM 46.9 °F - 46.0 °F 97% 29.50 in 10.0 mi North - - N/A   Overcast
9:01 AM 50.0 °F - 48.0 °F 93% 29.51 in 10.0 mi Calm Calm - N/A   Overcast
10:01 AM 53.1 °F - 48.9 °F 86% 29.51 in 10.0 mi SSE 5.8 mph - N/A   Overcast
11:01 AM 53.1 °F - 48.9 °F 86% 29.53 in 10.0 mi Calm Calm - N/A   Overcast
11:58 AM 51.8 °F - 50.0 °F 94% 29.27 in 5.0 mi Calm Calm - 0.00 in Rain Light Rain
12:01 PM 52.0 °F - 50.0 °F 93% 29.55 in 6.0 mi Calm Calm - 0.00 in Rain Light Rain
12:22 PM 51.8 °F - 48.2 °F 88% 29.28 in 10.0 mi Variable 3.5 mph - 0.01 in Rain Light Rain
1:01 PM 53.1 °F - 48.0 °F 83% 29.57 in 10.0 mi Calm Calm - 0.01 in   Overcast
2:01 PM 53.1 °F - 46.0 °F 77% 29.58 in 9.0 mi West 9.2 mph 24.2 mph 0.00 in Rain Light Rain
2:16 PM 51.8 °F - 46.4 °F 82% 29.31 in 2.0 mi WSW 20.7 mph 35.7 mph 0.01 in Rain Light Rain
2:52 PM 51.8 °F - 44.6 °F 76% 29.34 in 3.0 mi WSW 29.9 mph 41.4 mph 0.02 in Rain Light Rain
3:01 PM 51.1 °F - 44.1 °F 77% 29.61 in 5.0 mi SW 25.3 mph 39.1 mph 0.02 in Rain Light Rain
4:01 PM 48.2 °F - 42.8 °F 82% 29.37 in 5.0 mi SW 17.3 mph 36.8 mph 0.01 in Rain Light Rain
4:47 PM 48.9 °F - 43.0 °F 80% 29.66 in 4.0 mi WSW 23.0 mph 40.3 mph 0.01 in Rain Light Rain
5:01 PM 51.1 °F - 42.1 °F 71% 29.67 in 9.0 mi WSW 25.3 mph 34.5 mph 0.00 in Rain Light Rain
6:01 PM 51.1 °F - 41.0 °F 68% 29.69 in 10.0 mi WSW 17.3 mph 27.6 mph 0.00 in Rain Light Rain
7:01 PM 48.0 °F - 39.0 °F 71% 29.73 in 10.0 mi WSW 16.1 mph 32.2 mph 0.00 in Rain Light Rain
8:01 PM 48.2 °F - 37.4 °F 66% 29.48 in 10.0 mi WSW 13.8 mph 32.2 mph 0.00 in   Overcast
9:01 PM 50.0 °F - 37.9 °F 63% 29.79 in 10.0 mi SW 8.1 mph 28.8 mph 0.00 in   Overcast
10:01 PM 48.9 °F - 35.1 °F 59% 29.81 in 10.0 mi WSW 17.3 mph 21.9 mph N/A   Overcast
11:01 PM 48.9 °F - 37.9 °F 66% 29.83 in 10.0 mi WSW 13.8 mph 23.0 mph 0.00 in   Overcast